Location: Roc des P�zouls
(43.9667°N, 3.5500°E)
Time: 10:09:48
(UTC+00:00)

CZ-4C R/B - Pass Details

Date: 14 November 2019
Orbit: 649 x 1353 km, 63.4° (Epoch: 14 December)

Event Time Altitude Azimuth Distance (km) Brightness Sun altitude
Exits shadow 05:25:14 10° 321° (NW) 2,561 4.2 -13.4°
Maximum altitude 05:28:13 14° 351° (N) 2,411 4.4 -12.8°
Drops below altitude 10° 05:31:33 10° 22° (NNE) 2,832 5.0 -12.2°
Sets 05:36:00 0° 46° (NE) 3,959 6.1 -11.5°
